This is the latest recevied weather packets stored in our database for station/object LU3MCV-13. If no packets are shown the sender has not sent any weather packets the latest 10 day(s).
| Time | Temp. | Humidity | Pressure | Rain* | Wind** | Luminosity | Snow |
|---|---|---|---|---|---|---|---|
| 1777339571 | 13.89° C | 20% | 934.5 hPa | - | - | - | - |
| 1777338671 | 13.89° C | 19% | 934.5 hPa | - | - | - | - |
| 1777337771 | 13.89° C | 20% | 934.3 hPa | - | - | - | - |
| 1777336871 | 13.89° C | 20% | 934.2 hPa | - | - | - | - |
| 1777335971 | 13.89° C | 20% | 934 hPa | - | - | - | - |
| 1777335072 | 13.89° C | 20% | 933.9 hPa | - | - | - | - |
| 1777334171 | 13.89° C | 20% | 933.7 hPa | - | - | - | - |
| 1777333271 | 15° C | 18% | 933.5 hPa | - | - | - | - |
| 1777332371 | 15° C | 18% | 933.3 hPa | - | - | - | - |
| 1777331471 | 15° C | 17% | 933.1 hPa | - | - | - | - |
| 1777330571 | 15° C | 18% | 933 hPa | - | - | - | - |
| 1777329671 | 16.11° C | 17% | 932.8 hPa | - | - | - | - |
| 1777328771 | 16.11° C | 16% | 932.5 hPa | - | - | - | - |
| 1777327870 | 16.11° C | 16% | 932.3 hPa | - | - | - | - |
| 1777326971 | 17.22° C | 10% | 932.4 hPa | - | - | - | - |
| 1777326071 | 17.22° C | 10% | 932.4 hPa | - | - | - | - |
| 1777325171 | 17.22° C | 13% | 932.4 hPa | - | - | - | - |
| 1777324271 | 17.78° C | 13% | 932.3 hPa | - | - | - | - |
| 1777323370 | 17.78° C | 13% | 932.4 hPa | - | - | - | - |
| 1777322471 | 17.78° C | 13% | 932.3 hPa | - | - | - | - |
| 1777321571 | 17.78° C | 13% | 932.2 hPa | - | - | - | - |
| 1777320671 | 17.78° C | 13% | 932.2 hPa | - | - | - | - |
| 1777319771 | 17.78° C | 13% | 932.3 hPa | - | - | - | - |
| 1777318871 | 17.78° C | 13% | 932.4 hPa | - | - | - | - |
| 1777317970 | 17.78° C | 13% | 932.5 hPa | - | - | - | - |
* Rain since midnight (hover to see other rain measurements)
** Current wind speed in m/s (hover to see current wind gust speed)